Flag for Finland Weather past 2 weeks in Jakobstad, Finland

Now
55 °F

Partly sunny.


Feels Like: 53 °F
Forecast: 46 / 52 °F
Wind: 8 mph from Southwest

Location: Kruunupyy

Current Time: May 26, 2015 at 11:20:51 AM

Latest Report: May 26, 2015 at 10:50 AM


Visibility: N/A

Pressure: 29.80 "Hg

Humidity: 72%

Dew point: 46 °F

Location of JakobstadLocation

Historic Weather in Jakobstad — Graph

°F

Jakobstad temperature yesterday

Maximum temperature yesterday: 52 °F (at 4:20 PM)
Minimum temperature yesterday: 37 °F (at 1:20 AM)
Average temperature yesterday: 46 °F

Past Weeks' High & Low Weather Summary

 TemperatureHumidityPressure
High63 °F (May 22, 1:50 PM)100% (May 13, 2:50 AM)30.04 "Hg (May 13, 2:50 AM)
Low32 °F (May 19, 11:50 PM)37% (May 22, 2:50 PM)29.15 "Hg (May 13, 2:50 PM)
Average46 °F79%29.70 "Hg
* Reported May 11 10:20 AM — May 26 10:20 AM, Jakobstad, Weather by CustomWeather, © 2015

Note: Actual official high and low records may vary slightly from our data, if they occured in-between our weather recording intervals... More about our weather records

Advertising

Jakobstad weather history for previous 24 hours

 ConditionsComfort  
Time TempWeatherWind HumidityBarometerVisibility
10:20 AM
Tue, May 26
54 °FPartly sunny.6 mph77%29.80 "HgN/A
9:50 AM52 °FPartly sunny.7 mph82%29.80 "HgN/A
9:20 AM52 °FPartly sunny.7 mph82%29.80 "HgN/A
8:50 AM50 °FPartly sunny.6 mph88%29.80 "HgN/A
8:20 AM50 °FPartly sunny.7 mph88%29.80 "HgN/A
7:50 AM50 °FPartly sunny.7 mph88%29.80 "HgN/A
7:20 AM50 °FPartly sunny.5 mph88%29.80 "HgN/A
6:50 AM48 °FBroken clouds.5 mph94%29.80 "HgN/A
6:20 AM48 °FBroken clouds.5 mph94%29.80 "HgN/A
5:50 AM48 °FPartly sunny.3 mph94%29.83 "HgN/A
5:20 AM46 °FPartly sunny.3 mph100%29.83 "HgN/A
4:50 AM46 °FOvercast.3 mph100%29.83 "HgN/A
4:20 AM46 °FMostly cloudy.3 mph100%29.83 "HgN/A
3:50 AM46 °FOvercast.5 mph100%29.83 "HgN/A
3:20 AM46 °FLight rain. Passing clouds.1 mph93%29.83 "HgN/A
2:50 AM46 °FLight rain. Mostly cloudy.2 mph100%29.83 "Hg4 mi
2:20 AM46 °FFog.1 mph93%29.83 "Hg1 mi
1:50 AM46 °FFog.No wind100%29.83 "Hg3 mi
1:20 AM46 °FPassing clouds.2 mph100%29.83 "Hg3 mi
12:50 AM46 °FPassing clouds.5 mph93%29.83 "HgN/A
12:20 AM46 °FLight rain. Overcast.2 mph100%29.83 "HgN/A
11:50 PM
Mon, May 25
48 °FBroken clouds.1 mph94%29.86 "HgN/A
11:20 PM48 °FPartly sunny.3 mph94%29.86 "HgN/A
10:50 PM50 °FSunny.No wind88%29.83 "Hg10 mi
10:20 PM50 °FSunny.No wind88%29.83 "Hg10 mi
9:50 PM50 °FSunny.1 mph88%29.83 "Hg10 mi
9:20 PM50 °FSunny.2 mph94%29.83 "Hg10 mi
8:50 PM50 °FSprinkles. Partly sunny.3 mph94%29.83 "HgN/A
8:20 PM52 °FLight rain. Broken clouds.No wind88%29.83 "HgN/A
7:50 PM52 °FLight rain. Mostly cloudy.1 mph88%29.83 "HgN/A
7:20 PM52 °FLight rain. Mostly cloudy.3 mph88%29.83 "HgN/A
6:50 PM52 °FOvercast.5 mph82%29.83 "HgN/A
6:20 PM52 °FBroken clouds.6 mph88%29.83 "HgN/A
5:50 PM52 °FSprinkles. Broken clouds.3 mph88%29.83 "HgN/A
5:20 PM52 °FSprinkles. Cloudy.9 mph88%29.83 "HgN/A
4:50 PM52 °FSprinkles. Broken clouds.9 mph94%29.83 "HgN/A
4:20 PM52 °FBroken clouds.8 mph88%29.83 "HgN/A
3:50 PM50 °FLight rain. Broken clouds.6 mph94%29.83 "HgN/A
3:20 PM48 °FLight rain. Partly sunny.6 mph94%29.83 "HgN/A
2:50 PM48 °FCloudy.7 mph94%29.83 "Hg4 mi
2:20 PM48 °FSprinkles. Cloudy.6 mph94%29.83 "Hg3 mi
1:50 PM48 °FLight rain. Mostly cloudy.7 mph87%29.83 "Hg5 mi
1:20 PM48 °FLight rain. Broken clouds.9 mph82%29.80 "HgN/A
12:50 PM48 °FLight rain. More clouds than sun.7 mph82%29.80 "HgN/A
12:20 PM48 °FLight rain. Partly sunny.9 mph76%29.80 "HgN/A
11:50 AM48 °FLight rain. Overcast.7 mph71%29.80 "HgN/A
11:20 AM48 °FLight rain. Overcast.7 mph71%29.83 "HgN/A
Weather by CustomWeather, © 2015

See weather overviewHow to use our weather pages